• In Moldova, Republic
  • List of Countries
  • For 7 days
  • Water Temperature
  • Satellite Maps
  • Weather Map
  • Weather Widgets
  • user-avatar
    Login

    Hourly Weather Wien

    Today, 29 April, Saturday

    Time Temperature Precipitation Wind Pressure Humidity
    00:00 +1°C° 0 mm 6 mps 742 mmHg 90%
    01:00 +1°C° 0 mm 5 mps 742 mmHg 90%
    02:00 +1°C° 0 mm 5 mps 742 mmHg 91%
    03:00 +1°C° 0 mm 5 mps 743 mmHg 91%
    04:00 +1°C° 0 mm 4 mps 743 mmHg 91%
    05:00 +3°C° 0 mm 4 mps 743 mmHg 87%
    06:00 +4°C° 0 mm 4 mps 744 mmHg 84%
    07:00 +5°C° 0 mm 3 mps 744 mmHg 80%
    08:00 +7°C° 0 mm 3 mps 744 mmHg 74%
    09:00 +9°C° 0 mm 3 mps 744 mmHg 68%
    10:00 +10°C° 0 mm 3 mps 744 mmHg 62%
    11:00 +11°C° 0.1 mm 3 mps 744 mmHg 59%
    12:00 +12°C° 0.1 mm 3 mps 744 mmHg 57%
    13:00 +12°C° 0 mm 3 mps 744 mmHg 54%
    14:00 +12°C° 0.1 mm 3 mps 744 mmHg 54%
    15:00 +12°C° 0.1 mm 3 mps 743 mmHg 54%
    16:00 +12°C° 0.1 mm 3 mps 743 mmHg 55%
    17:00 +10°C° 0 mm 2 mps 743 mmHg 63%
    18:00 +8°C° 0 mm 2 mps 743 mmHg 71%
    19:00 +6°C° 0 mm 2 mps 743 mmHg 79%
    20:00 +5°C° 0 mm 2 mps 744 mmHg 80%
    21:00 +5°C° 0 mm 2 mps 744 mmHg 81%
    22:00 +4°C° 0 mm 2 mps 744 mmHg 82%
    23:00 +4°C° 0 mm 1 mps 744 mmHg 83%

    Tomorrow, 30 April, Sunday

    Time Temperature Precipitation Wind Pressure Humidity
    00:00 +4°C° 0 mm 1 mps 744 mmHg 83%
    01:00 +3°C° 0 mm 1 mps 744 mmHg 84%
    02:00 +3°C° 0 mm 1 mps 744 mmHg 85%
    03:00 +3°C° 0 mm 1 mps 744 mmHg 85%
    04:00 +1°C° 0 mm 0 mps 744 mmHg 86%
    05:00 +5°C° 0 mm 1 mps 745 mmHg 80%
    06:00 +7°C° 0 mm 1 mps 745 mmHg 74%
    07:00 +10°C° 0 mm 1 mps 745 mmHg 67%
    08:00 +11°C° 0 mm 1 mps 745 mmHg 63%
    09:00 +12°C° 0 mm 2 mps 745 mmHg 59%
    10:00 +13°C° 0 mm 3 mps 745 mmHg 55%
    11:00 +14°C° 0 mm 3 mps 745 mmHg 53%
    12:00 +14°C° 0 mm 4 mps 744 mmHg 51%
    13:00 +15°C° 0 mm 4 mps 744 mmHg 50%
    14:00 +15°C° 0 mm 4 mps 743 mmHg 51%
    15:00 +15°C° 0 mm 4 mps 743 mmHg 52%
    16:00 +15°C° 0 mm 4 mps 743 mmHg 54%
    17:00 +13°C° 0 mm 4 mps 743 mmHg 61%
    18:00 +11°C° 0 mm 4 mps 743 mmHg 69%
    19:00 +10°C° 0 mm 3 mps 743 mmHg 76%
    20:00 +9°C° 0 mm 3 mps 743 mmHg 78%
    21:00 +8°C° 0 mm 4 mps 743 mmHg 79%
    22:00 +7°C° 0 mm 4 mps 743 mmHg 81%
    23:00 +7°C° 0 mm 4 mps 743 mmHg 82%

    Day after tomorrow, 1 May, Monday

    Time Temperature Precipitation Wind Pressure Humidity
    00:00 +6°C° 0 mm 4 mps 742 mmHg 83%
    01:00 +6°C° 0 mm 4 mps 742 mmHg 84%
    02:00 +5°C° 0 mm 4 mps 742 mmHg 85%
    03:00 +5°C° 0 mm 4 mps 742 mmHg 85%
    04:00 +5°C° 0 mm 4 mps 741 mmHg 85%
    05:00 +6°C° 0 mm 5 mps 741 mmHg 82%
    06:00 +7°C° 0 mm 5 mps 741 mmHg 80%
    07:00 +8°C° 0 mm 6 mps 741 mmHg 77%
    08:00 +9°C° 0 mm 6 mps 741 mmHg 73%
    09:00 +11°C° 0 mm 6 mps 741 mmHg 68%
    10:00 +14°C° 0 mm 6 mps 741 mmHg 64%
    11:00 +15°C° 0 mm 6 mps 741 mmHg 62%
    12:00 +15°C° 0 mm 6 mps 741 mmHg 60%
    13:00 +16°C° 0 mm 6 mps 741 mmHg 58%
    14:00 +16°C° 0 mm 5 mps 741 mmHg 60%
    15:00 +16°C° 0 mm 5 mps 740 mmHg 62%
    16:00 +16°C° 0 mm 5 mps 740 mmHg 64%
    17:00 +15°C° 0 mm 4 mps 740 mmHg 71%
    18:00 +13°C° 0 mm 3 mps 740 mmHg 78%
    19:00 +12°C° 0 mm 3 mps 741 mmHg 84%
    20:00 +12°C° 0 mm 2 mps 741 mmHg 86%
    21:00 +10°C° 0 mm 2 mps 741 mmHg 88%
    22:00 +10°C° 0 mm 2 mps 742 mmHg 90%
    23:00 +9°C° 0 mm 2 mps 742 mmHg 90%

    2 May, Tuesday

    Time Temperature Precipitation Wind Pressure Humidity
    00:00 +8°C° 0 mm 2 mps 742 mmHg 91%
    01:00 +8°C° 0 mm 3 mps 742 mmHg 91%
    02:00 +8°C° 0.2 mm 3 mps 742 mmHg 90%
    03:00 +7°C° 0.2 mm 3 mps 742 mmHg 90%
    04:00 +7°C° 0.2 mm 3 mps 743 mmHg 90%
    05:00 +8°C° 0.1 mm 3 mps 743 mmHg 88%
    06:00 +8°C° 0.1 mm 3 mps 743 mmHg 86%
    07:00 +9°C° 0.1 mm 3 mps 744 mmHg 84%
    08:00 +10°C° 0 mm 3 mps 744 mmHg 79%
    09:00 +11°C° 0 mm 3 mps 744 mmHg 74%
    10:00 +12°C° 0 mm 3 mps 745 mmHg 69%
    11:00 +15°C° 0 mm 2 mps 745 mmHg 65%
    12:00 +16°C° 0 mm 2 mps 745 mmHg 60%
    13:00 +19°C° 0 mm 1 mps 744 mmHg 55%
    14:00 +19°C° 0 mm 1 mps 744 mmHg 55%
    15:00 +19°C° 0 mm 1 mps 744 mmHg 54%
    16:00 +19°C° 0 mm 1 mps 744 mmHg 54%
    17:00 +16°C° 0 mm 1 mps 744 mmHg 63%
    18:00 +14°C° 0 mm 1 mps 744 mmHg 72%
    19:00 +12°C° 0 mm 1 mps 744 mmHg 81%
    20:00 +11°C° 0 mm 1 mps 744 mmHg 83%
    21:00 +11°C° 0 mm 1 mps 744 mmHg 85%
    22:00 +10°C° 0 mm 1 mps 744 mmHg 86%
    23:00 +10°C° 0 mm 1 mps 744 mmHg 87%

    3 May, Wednesday

    Time Temperature Precipitation Wind Pressure Humidity
    00:00 +10°C° 0 mm 1 mps 744 mmHg 87%
    01:00 +10°C° 0 mm 1 mps 744 mmHg 88%
    02:00 +10°C° 0 mm 1 mps 744 mmHg 89%
    03:00 +10°C° 0 mm 1 mps 743 mmHg 89%
    04:00 +10°C° 0 mm 1 mps 743 mmHg 90%
    05:00 +11°C° 0 mm 1 mps 743 mmHg 87%
    06:00 +13°C° 0 mm 1 mps 743 mmHg 83%
    07:00 +14°C° 0 mm 1 mps 743 mmHg 80%
    08:00 +15°C° 0 mm 2 mps 743 mmHg 75%
    09:00 +16°C° 0 mm 2 mps 743 mmHg 71%
    10:00 +18°C° 0 mm 2 mps 742 mmHg 67%
    11:00 +19°C° 0 mm 3 mps 742 mmHg 63%
    12:00 +20°C° 0 mm 3 mps 742 mmHg 59%
    13:00 +21°C° 0 mm 3 mps 741 mmHg 56%
    14:00 +21°C° 0.2 mm 3 mps 741 mmHg 58%
    15:00 +21°C° 0.2 mm 3 mps 741 mmHg 60%
    16:00 +21°C° 0.2 mm 3 mps 740 mmHg 62%
    17:00 +19°C° 0.2 mm 3 mps 740 mmHg 69%
    18:00 +17°C° 0.2 mm 3 mps 740 mmHg 77%
    19:00 +16°C° 0.2 mm 2 mps 740 mmHg 84%
    20:00 +14°C° 0.1 mm 2 mps 740 mmHg 85%
    21:00 +13°C° 0.1 mm 2 mps 740 mmHg 87%
    22:00 +12°C° 0.1 mm 2 mps 740 mmHg 88%
    23:00 +12°C° 0 mm 2 mps 740 mmHg 89%

    4 May, Thursday

    Time Temperature Precipitation Wind Pressure Humidity
    00:00 +10°C° 0 mm 2 mps 740 mmHg 90%
    01:00 +10°C° 0 mm 2 mps 740 mmHg 90%
    02:00 +9°C° 0 mm 2 mps 740 mmHg 91%
    03:00 +9°C° 0 mm 2 mps 740 mmHg 92%
    04:00 +9°C° 0 mm 2 mps 740 mmHg 93%
    05:00 +10°C° 0 mm 3 mps 740 mmHg 90%
    06:00 +11°C° 0 mm 3 mps 741 mmHg 86%
    07:00 +12°C° 0 mm 3 mps 741 mmHg 82%
    08:00 +14°C° 0 mm 3 mps 741 mmHg 77%
    09:00 +16°C° 0 mm 3 mps 741 mmHg 72%
    10:00 +18°C° 0 mm 2 mps 741 mmHg 66%
    11:00 +18°C° 0.2 mm 2 mps 741 mmHg 65%
    12:00 +20°C° 0.2 mm 1 mps 740 mmHg 64%
    13:00 +20°C° 0.2 mm 1 mps 740 mmHg 63%
    14:00 +20°C° 0.5 mm 1 mps 740 mmHg 65%
    15:00 +20°C° 0.5 mm 1 mps 740 mmHg 68%
    16:00 +18°C° 0.5 mm 2 mps 739 mmHg 70%
    17:00 +17°C° 0.4 mm 2 mps 739 mmHg 77%
    18:00 +15°C° 0.4 mm 1 mps 739 mmHg 83%
    19:00 +13°C° 0.4 mm 1 mps 739 mmHg 90%
    20:00 +13°C° 0.2 mm 1 mps 739 mmHg 91%
    21:00 +12°C° 0.2 mm 2 mps 740 mmHg 92%
    22:00 +10°C° 0.2 mm 2 mps 740 mmHg 93%
    23:00 +10°C° 0 mm 2 mps 740 mmHg 93%
    Show more